Weather History for Toledo, OH

Change the Weather History Date:

Thursday, October 25, 2012

  Actual Average Record
Temperature  
Mean Temperature 66 °F 49 °F  
Max Temperature 77 °F 59 °F 81 °F (1963)
Min Temperature 55 °F 39 °F 21 °F (1960)
Degree Days  
Heating Degree Days 0 16  
Month to date heating degree days 290 302  
Since 1 July heating degree days 438 426  
Cooling Degree Days 1 0  
Month to date cooling degree days 6 8  
Year to date cooling degree days 998 792  
Growing Degree Days 16 (Base 50)    
Moisture  
Dew Point 52 °F    
Average Humidity 62    
Maximum Humidity 83    
Minimum Humidity 40    
Precipitation  
Precipitation 0.00 in 0.08 in 1.79 in (1991)
Month to date precipitation 1.63 2.11  
Year to date precipitation 26.77 28.21  
Snow  
Snow 0.00 in 0.00 in - ()
Month to date snowfall 0.0 0.1  
Since 1 July snowfall 0.0 0.1  
Since 1 September snowfall 0.0 0.1  
Snow Depth 0.00 in    
Sea Level Pressure  
Sea Level Pressure 29.94 in    
Wind  
Wind Speed 9 mph (South)    
Max Wind Speed 22 mph    
Max Gust Speed 31 mph    
Visibility 10 miles    
Events      
T = Trace of Precipitation, MM = Missing Value Source: NWS Daily Summary

Daily Weather History Graph

Daily Weather History Graph

Search for Another Location

Airport:

Trip Planner

Search our weather history database for the weather conditions in past years. The results will help you decide how hot, cold, wet, or windy it might be!

Date:

Astronomy

Oct. 25, 2012 Rise Set
Actual Time 7:59 AM EDT 6:38 PM EDT
Civil Twilight 7:30 AM EDT 7:06 PM EDT
Nautical Twilight 6:58 AM EDT 7:39 PM EDT
Astronomical Twilight 6:26 AM EDT 8:11 PM EDT
Moon 4:26 PM EDT (10/25) 3:52 AM EDT (10/25)
Length of Visible Light 11h 36m
Length of Day
10h 39m
Waxing Gibbous, 84% of the Moon is Illuminated
Oct 25
Waxing Gibbous
Oct 29
Full
Nov 6
Last Quarter
Nov 13
New
Nov 20
First Quarter

Hourly Weather History & Observations

Time (EDT) Temp. Dew Point Humidity Pressure Visibility Wind Dir Wind Speed Gust Speed Precip Events Conditions
12:52 AM 62.1 °F 52.0 °F 70% 29.99 in 10.0 mi South 5.8 mph - N/A   Clear
1:52 AM 60.1 °F 51.1 °F 72% 29.99 in 10.0 mi South 4.6 mph - N/A   Clear
2:52 AM 59.0 °F 51.1 °F 75% 29.98 in 10.0 mi South 4.6 mph - N/A   Clear
3:52 AM 57.9 °F 51.1 °F 78% 29.98 in 10.0 mi South 5.8 mph - N/A   Clear
4:52 AM 57.0 °F 50.0 °F 77% 29.97 in 10.0 mi Calm Calm - N/A   Clear
5:52 AM 55.0 °F 50.0 °F 83% 29.98 in 10.0 mi South 3.5 mph - N/A   Clear
6:52 AM 57.0 °F 50.0 °F 77% 29.99 in 10.0 mi SSE 4.6 mph - N/A   Clear
7:52 AM 55.9 °F 50.0 °F 80% 30.00 in 10.0 mi South 4.6 mph - N/A   Clear
8:52 AM 57.0 °F 50.0 °F 77% 30.01 in 10.0 mi South 8.1 mph - N/A   Clear
9:52 AM 62.1 °F 51.1 °F 67% 30.01 in 10.0 mi South 9.2 mph - N/A   Clear
10:52 AM 68.0 °F 52.0 °F 56% 30.00 in 10.0 mi South 9.2 mph - N/A   Clear
11:52 AM 72.0 °F 53.1 °F 51% 29.98 in 10.0 mi SSW 9.2 mph 18.4 mph N/A   Clear
12:52 PM 75.0 °F 54.0 °F 48% 29.96 in 10.0 mi South 13.8 mph 24.2 mph N/A   Clear
1:52 PM 75.9 °F 54.0 °F 46% 29.93 in 10.0 mi SSW 18.4 mph 23.0 mph N/A   Clear
2:52 PM 75.9 °F 53.1 °F 45% 29.91 in 10.0 mi South 12.7 mph 27.6 mph N/A   Clear
3:52 PM 77.0 °F 51.8 °F 41% 29.89 in 10.0 mi South 13.8 mph 24.2 mph N/A   Clear
4:52 PM 75.9 °F 52.0 °F 43% 29.88 in 10.0 mi South 13.8 mph 24.2 mph N/A   Clear
5:52 PM 73.9 °F 51.1 °F 45% 29.88 in 10.0 mi South 10.4 mph 24.2 mph N/A   Clear
6:52 PM 71.1 °F 51.1 °F 49% 29.88 in 10.0 mi SSW 9.2 mph - N/A   Clear
7:52 PM 70.0 °F 52.0 °F 53% 29.89 in 10.0 mi South 9.2 mph 17.3 mph N/A   Clear
8:52 PM 69.1 °F 53.1 °F 57% 29.89 in 10.0 mi South 9.2 mph - N/A   Clear
9:52 PM 66.9 °F 52.0 °F 59% 29.89 in 10.0 mi South 9.2 mph - N/A   Clear
10:52 PM 66.0 °F 52.0 °F 60% 29.88 in 10.0 mi South 9.2 mph - N/A   Clear
11:52 PM 64.0 °F 52.0 °F 65% 29.88 in 10.0 mi South 10.4 mph - N/A   Partly Cloudy